[[{"header":{"parameterUnit":"m.s-1","parameterCategory":1,"la1":30.2991,"la2":30.254,"lo1":-89.0895,"lo2":-89.0444,"dy":0.0017,"dx":0.0017,"nx":28,"ny":28,"refTime":"2025-05-28T21:00:00:Z","depth":0,"parameterNumber":2,"parameterNumberName":"U-component_of_WINDS"},"data":[0,0,0,0,0,0,0,0,0,0,0,0,0,0,0,0,0,0,0,0,0,0,0,0,0,0,0,0,0,0,0,0,0,0,0,0,0,0,0,0,0,0,0,0,0,0,0,0,0,0,0,0,0,0,0,0,0,0,-1.9643,-1.9645,0,-1.9775,-1.9776,-1.9778,-1.9803,-1.9802,-1.9801,-1.98,-1.9929,-1.9933,-1.9938,0,0,0,0,0,0,0,0,0,0,0,0,0,-1.9405,-1.941,-1.9643,-1.9645,-1.9646,-1.9775,-1.9777,-1.9778,-1.9803,-1.9802,-1.98,-1.9799,-1.9928,-1.9933,-1.9938,0,0,0,0,0,0,0,0,0,0,0,0,0,-1.952,-1.9411,-1.9643,-1.9674,-1.9678,-1.9774,-1.9777,-1.9779,-1.9803,-1.9802,-1.98,-1.9799,-1.9926,-1.9932,-1.9939,-2.0011,0,0,-1.9959,-1.9962,0,0,0,0,0,0,0,0,-1.9513,-1.9529,-1.9668,-1.9672,-1.9677,-1.9771,-1.974,-1.9856,-1.9804,-1.9756,-1.98,-1.9798,-1.9877,-1.9888,-1.9916,-2.0017,-2.0022,-1.996,-1.9964,-1.9966,-1.9968,0,0,0,0,0,0,0,-1.9505,-1.9523,-1.9695,-1.967,-1.9675,-1.9679,-1.9694,-1.9762,-1.9823,-1.976,-1.9762,-1.9777,-1.9879,-1.9909,-1.9919,-2.0024,-1.9959,-1.9965,-1.9969,-1.9972,-2.0188,-2.019,0,0,0,0,0,0,-1.9493,-1.9516,-1.9691,-1.9699,-1.959,-1.9685,-1.9701,-1.9742,-1.9823,-1.9834,-1.9779,-1.9778,-1.9899,-1.9911,-1.9924,-2.0011,-1.9966,-1.9973,-1.9976,-2.0186,-2.0188,-2.019,0,0,0,0,0,0,-1.9488,-1.9508,-1.9686,-1.9608,-1.9631,-1.9691,-1.9737,-1.9746,-1.9776,-1.9837,-1.9847,-1.9798,-1.9898,-1.9914,-1.9989,-2.0016,-1.9976,-1.9982,-2.0184,-2.0187,-2.0189,-2.0189,0,0,0,0,0,0,-1.9481,-1.9506,-1.9536,-1.9609,-1.9635,-1.9751,-1.9738,-1.9749,-1.9788,-1.9788,-1.9859,-1.9869,-1.9898,-1.9979,-1.9995,-2.0025,-1.9987,-2.0182,-2.0185,-2.0188,-2.0186,-2.0191,-2.0195,0,0,0,0,0,-1.9472,-1.953,-1.9537,-1.9558,-1.9674,-1.9752,-1.9767,-1.9802,-1.979,-1.9819,-1.9858,-1.9866,-2.0011,-1.9986,-2.0005,-2.0037,-2.018,-2.0184,-2.0188,-2.0184,-2.019,-2.0195,0,0,0,0,0,0,-1.9457,-1.954,-1.9549,-1.9633,-1.9685,-1.9756,-1.9794,-1.9807,-1.9862,-1.986,-1.9899,-1.9914,-1.9986,-2.0019,-1.999,-2.0109,-2.0094,-2.0102,-2.0085,-2.0091,-2.0095,-2.0085,-1.9992,0,0,0,0,0,-1.9464,-1.9523,-1.9591,-1.9658,-1.9684,-1.9734,-1.977,-1.9792,-1.9847,-1.9869,-1.9913,-1.9965,-2.0022,-2.0058,-2.0114,-2.0191,-2.0205,-2.0222,-2.0226,-2.0229,-2.0235,-2.0276,-2.0284,-2.0203,-2.0203,-2.0203,0,0,-1.9478,-1.953,-1.9565,-1.9656,-1.97,-1.9757,-1.9753,-1.9814,-1.9856,-1.9878,-1.9951,-1.9985,-2.0045,-2.012,-2.0156,-2.015,-2.0261,-2.0235,-2.0237,-2.0241,-2.0281,-2.0288,-2.0295,-2.0206,-2.0205,-2.0205,0,0,-1.9532,-1.9579,-1.9639,-1.9682,-1.9748,-1.9781,-1.9796,-1.9865,-1.9888,-1.9963,-1.9979,-2.0028,-2.0126,-2.0168,-2.0201,-2.0269,-2.0278,-2.0286,-2.0307,-2.0346,-2.0353,-2.0358,-2.038,-2.0388,-2.0292,-2.0292,-2.0292,0,-1.9541,-1.963,-1.9668,-1.9728,-1.9766,-1.979,-1.9849,-1.9888,-1.9968,-1.9993,-1.9986,-2.0108,-2.015,-2.0234,-2.025,-2.0278,-2.0293,-2.0278,-2.0349,-2.0355,-2.0361,-2.0382,-2.0391,-2.0292,-2.0292,-2.0292,-2.0292,0,-1.9636,-1.9697,-1.9737,-1.9815,-1.9858,-1.9918,-1.9962,-2.0,-2.0018,-2.005,-2.0124,-2.0175,-2.0241,-2.0262,-2.028,-2.0348,-2.0343,-2.0342,-2.0327,-2.0369,-2.0389,-2.0398,-2.0293,-2.0293,-2.0293,-2.0293,0,0,-1.9685,-1.9782,-1.9796,-1.9831,-1.9905,-1.9952,-2.001,-2.0076,-2.0107,-2.0161,-2.021,-2.0291,-2.029,-2.0329,-2.0351,-2.0385,-2.0433,-2.038,-2.0382,-2.0386,-2.0508,-2.0507,-2.0516,-2.0439,-2.0441,-2.0442,-2.0503,0,-1.9747,-1.9856,-1.989,-1.9979,-2.0035,-2.0057,-2.0108,-2.0157,-2.0188,-2.0238,-2.0272,-2.0329,-2.0325,-2.0347,-2.0383,-2.042,-2.0457,-2.0416,-2.0482,-2.0484,-2.0466,-2.0528,-2.0528,-2.0582,-2.0511,-2.0513,-2.0514,0,-1.9834,-1.989,-1.9985,-2.005,-2.0075,-2.012,-2.0182,-2.023,-2.0285,-2.0305,-2.0347,-2.0366,-2.0426,-2.0409,-2.049,-2.0461,-2.049,-2.0511,-2.0514,-2.0521,-2.0501,-2.0534,-2.06,-2.0608,-2.0527,-2.0526,-2.0525,0,-1.9858,-1.9957,-2.0027,-2.0056,-2.0134,-2.0165,-2.0198,-2.0252,-2.0288,-2.0341,-2.0365,-2.0423,-2.0455,-2.0499,-2.0532,-2.0517,-2.0609,-2.0595,-2.0625,-2.0624,-2.0643,-2.0641,-2.0713,-2.0664,-2.0664,-2.0664,-2.0664,0,-1.9922,-1.9979,-2.0038,-2.0081,-2.0144,-2.0182,-2.0243,-2.0277,-2.0324,-2.0371,-2.0393,-2.0437,-2.0479,-2.0527,-2.0553,-2.0615,-2.0629,-2.0645,-2.0651,-2.0643,-2.0641,-2.0662,-2.0658,-2.0666,-2.0665,-2.0665,-2.0665,0,-1.996,-2.0002,-2.0078,-2.0146,-2.0164,-2.0207,-2.0264,-2.0304,-2.0336,-2.0396,-2.0412,-2.0462,-2.0519,-2.0557,-2.0631,-2.0648,-2.0714,-2.072,-2.0696,-2.0699,-2.0726,-2.0722,-2.0813,-2.0826,-2.0769,-2.077,-2.077,0,-1.9998,-2.0042,-2.0114,-2.0148,-2.0182,-2.0237,-2.0274,-2.0312,-2.035,-2.0415,-2.0447,-2.0506,-2.0556,-2.0646,-2.0688,-2.0743,-2.0749,-2.0777,-2.0758,-2.0747,-2.0747,-2.0744,-2.0747,-2.078,-2.078,-2.0781,-2.0781,0,-2.006,-2.0078,-2.0132,-2.0193,-2.0237,-2.0287,-2.0336,-2.0362,-2.0408,-2.0448,-2.0508,-2.0547,-2.0622,-2.068,-2.0739,-2.077,-2.0782,-2.0787,-2.0797,-2.0788,-2.0771,-2.0779,-2.0703,-2.0784,-2.0784,-2.0784,-2.0784,-2.0784,-2.0097,-2.0137,-2.0193,-2.0252,-2.0293,-2.0338,-2.0379,-2.0417,-2.0468,-2.0533,-2.0552,-2.0614,-2.0665,-2.0746,-2.0778,-2.0825,-2.0822,-2.0836,-2.084,-2.0842,-2.0842,-2.0765,-2.0836,-2.0836,-2.0836,-2.0836,-2.0836,0,-2.0159,-2.0196,-2.025,-2.0318,-2.0364,-2.0373,-2.0427,-2.0464,-2.0519,-2.0567,-2.0615,-2.0683,-2.0738,-2.0784,-2.084,-2.0869,-2.0876,-2.0883,-2.088,-2.0887,-2.0842,-2.0828,-2.0876,-2.0876,-2.0876,-2.0876,-2.0876,-2.0876,-2.0196,-2.0263,-2.0288,-2.0374,-2.041,-2.0473,-2.0502,-2.0543,-2.0581,-2.0656,-2.0703,-2.0733,-2.0779,-2.0839,-2.0889,-2.0901,-2.092,-2.0925,-2.0937,-2.0895,-2.089,-2.0886,-2.0872,-2.0929,-2.0929,-2.0977,-2.0978,-2.0978]},{"header":{"parameterUnit":"m.s-1","parameterCategory":1,"la1":30.2991,"la2":30.254,"lo1":-89.0895,"lo2":-89.0444,"dy":0.0017,"dx":0.0017,"nx":28,"ny":28,"refTime":"2025-05-28T21:00:00:Z","depth":0,"parameterNumber":3,"parameterNumberName":"V-component_of_WINDS"},"data":[0,0,0,0,0,0,0,0,0,0,0,0,0,0,0,0,0,0,0,0,0,0,0,0,0,0,0,0,0,0,0,0,0,0,0,0,0,0,0,0,0,0,0,0,0,0,0,0,0,0,0,0,0,0,0,0,0,0,2.6899,2.69,0,2.7011,2.7012,2.7014,2.7103,2.7103,2.7104,2.7105,2.7221,2.7223,2.7225,0,0,0,0,0,0,0,0,0,0,0,0,0,2.6763,2.6765,2.6899,2.69,2.6901,2.7011,2.7012,2.7014,2.7102,2.7103,2.7104,2.7106,2.722,2.7223,2.7225,0,0,0,0,0,0,0,0,0,0,0,0,0,2.6843,2.6766,2.6898,2.6959,2.6965,2.7011,2.7012,2.7014,2.7102,2.7103,2.7105,2.7106,2.7219,2.7222,2.7226,2.722,0,0,2.7236,2.7237,0,0,0,0,0,0,0,0,2.6839,2.6848,2.6949,2.6955,2.6962,2.7044,2.7007,2.7083,2.7102,2.705,2.7105,2.7107,2.7161,2.7169,2.7187,2.7226,2.7231,2.7236,2.7238,2.724,2.7241,0,0,0,0,0,0,0,2.6833,2.6844,2.6943,2.695,2.6958,2.6981,2.6994,2.7022,2.7097,2.7055,2.7062,2.7074,2.7165,2.7184,2.7191,2.7232,2.7236,2.7239,2.7241,2.7243,2.7274,2.7273,0,0,0,0,0,0,2.6818,2.6839,2.694,2.6947,2.6902,2.6982,2.6997,2.7016,2.7097,2.711,2.7072,2.7077,2.7177,2.7187,2.7195,2.7195,2.724,2.7243,2.7245,2.7276,2.7274,2.7273,0,0,0,0,0,0,2.6815,2.6826,2.6935,2.6895,2.691,2.6983,2.7005,2.7018,2.7037,2.711,2.7124,2.7078,2.7179,2.719,2.7214,2.7201,2.7244,2.7248,2.7277,2.7275,2.7273,2.7195,0,0,0,0,0,0,2.681,2.6824,2.6822,2.6894,2.6912,2.6951,2.7004,2.7019,2.7043,2.705,2.7119,2.7131,2.7181,2.7208,2.7217,2.7206,2.725,2.7278,2.7276,2.7274,2.7199,2.719,2.7183,0,0,0,0,0,2.6805,2.6795,2.6822,2.6833,2.6911,2.695,2.696,2.7017,2.7041,2.704,2.7088,2.7129,2.7201,2.721,2.7221,2.721,2.728,2.7277,2.7274,2.7202,2.7192,2.7183,0,0,0,0,0,0,2.672,2.6806,2.6836,2.6848,2.6891,2.6965,2.6965,2.7004,2.7041,2.7046,2.7116,2.7131,2.7147,2.7181,2.719,2.7211,2.7246,2.7245,2.7187,2.7178,2.7171,2.7162,2.7253,0,0,0,0,0,2.6702,2.6726,2.68,2.6805,2.6825,2.6891,2.691,2.695,2.6997,2.7016,2.7065,2.7109,2.7142,2.7162,2.7196,2.7205,2.7222,2.7203,2.7195,2.7189,2.7187,2.7196,2.7189,2.7264,2.7264,2.7264,0,0,2.6667,2.6717,2.6727,2.6789,2.6827,2.6851,2.6905,2.6928,2.6947,2.702,2.7045,2.7082,2.7137,2.7153,2.7163,2.7182,2.717,2.7185,2.7179,2.7182,2.7192,2.7185,2.7179,2.7262,2.7263,2.7263,0,0,2.6614,2.6654,2.6662,2.6699,2.6756,2.6801,2.6803,2.6871,2.6899,2.6926,2.6981,2.7005,2.706,2.7097,2.7123,2.7087,2.7127,2.7096,2.7055,2.7063,2.7057,2.7053,2.7041,2.7036,2.7095,2.7094,2.7094,0,2.6562,2.66,2.6662,2.6682,2.6708,2.6775,2.6785,2.6818,2.6883,2.69,2.6921,2.6993,2.7034,2.7061,2.7052,2.7071,2.7076,2.7088,2.7053,2.7049,2.7045,2.7035,2.703,2.709,2.7091,2.7091,2.7092,0,2.6535,2.6561,2.6561,2.6622,2.6649,2.6663,2.6728,2.6747,2.6786,2.6829,2.6856,2.6909,2.6955,2.6965,2.7002,2.6998,2.7008,2.704,2.7077,2.7033,2.7025,2.7021,2.7084,2.7086,2.7087,2.7088,0,0,2.643,2.6526,2.6525,2.6555,2.6624,2.6645,2.6664,2.671,2.6726,2.6769,2.6788,2.6833,2.6864,2.6894,2.6937,2.6943,2.6913,2.6975,2.6978,2.6963,2.6913,2.6889,2.6883,2.6941,2.6941,2.694,2.6909,0,2.6388,2.6425,2.6482,2.65,2.6526,2.6591,2.6608,2.6653,2.6694,2.6722,2.6768,2.68,2.6838,2.6856,2.6866,2.6915,2.6904,2.6918,2.696,2.696,2.6944,2.6878,2.6852,2.682,2.6906,2.6905,2.6905,0,2.6344,2.6384,2.6405,2.6474,2.6487,2.65,2.6548,2.6575,2.6627,2.6657,2.6691,2.6738,2.6763,2.6796,2.6832,2.684,2.6861,2.6888,2.6888,2.6894,2.693,2.6883,2.6811,2.6806,2.69,2.6901,2.6901,0,2.6266,2.6325,2.6346,2.6369,2.645,2.6458,2.6492,2.6547,2.6571,2.6614,2.6631,2.6675,2.6699,2.6734,2.6792,2.6811,2.6822,2.686,2.6849,2.6847,2.6848,2.6847,2.6778,2.686,2.686,2.686,2.686,0,2.6214,2.6224,2.6312,2.6325,2.6339,2.6406,2.6418,2.6459,2.6507,2.653,2.6589,2.661,2.6685,2.6715,2.6761,2.6785,2.6795,2.6821,2.6833,2.6816,2.6812,2.683,2.6834,2.6859,2.686,2.686,2.686,0,2.6128,2.6188,2.6215,2.629,2.6309,2.6316,2.6381,2.6396,2.6442,2.647,2.6481,2.6552,2.659,2.6652,2.6709,2.674,2.6756,2.6776,2.6737,2.6745,2.673,2.6731,2.6671,2.6667,2.675,2.6749,2.6749,0,2.6091,2.6101,2.6177,2.6196,2.6228,2.6259,2.6285,2.6351,2.6376,2.6438,2.6447,2.649,2.6527,2.6586,2.6643,2.6688,2.671,2.6686,2.6716,2.6699,2.671,2.6709,2.6711,2.6678,2.6677,2.6676,2.6675,0,2.6018,2.6048,2.6082,2.6128,2.6157,2.6196,2.6239,2.6251,2.6328,2.6353,2.6393,2.6422,2.6481,2.6523,2.6576,2.6612,2.6657,2.6665,2.6665,2.6647,2.6625,2.6638,2.6718,2.6666,2.6667,2.6667,2.6668,2.6668,2.5956,2.5969,2.6025,2.6062,2.6101,2.614,2.6159,2.6207,2.6241,2.6294,2.6332,2.6369,2.6425,2.65,2.6535,2.6566,2.6586,2.6585,2.6585,2.6584,2.6578,2.662,2.6576,2.6577,2.6577,2.6577,2.6577,0,2.5887,2.5927,2.5961,2.6019,2.6048,2.6088,2.6138,2.616,2.6193,2.624,2.6277,2.6324,2.6366,2.6428,2.6475,2.6489,2.6511,2.6499,2.6499,2.6507,2.6557,2.6553,2.6481,2.6481,2.6481,2.6481,2.6481,2.6481,2.5855,2.5879,2.5915,2.596,2.6,2.6037,2.6062,2.6099,2.6138,2.6188,2.6223,2.6263,2.6318,2.637,2.6411,2.6428,2.6443,2.6426,2.6449,2.6495,2.6503,2.6512,2.6508,2.6428,2.6428,2.6397,2.6397,2.6396]}]]